• In Österreich
  • Länderverzeichnis
  • Für 7 Tage
  • Wassertemperatur
  • Satellitenkarten
  • Wetterkarte
  • News
  • Widgets
  • user-avatar
    Anmelden

    Stündliche Wetter Meknes

    Heute, 19 Januar, Freitag

    Zeit Temperatur Niederschläge Wind Luftdruck Luftfeuchtigkeit
    00:00 +10°C° 0 mm 1 m/S 716 mmHg 80%
    01:00 +10°C° 0 mm 1 m/S 716 mmHg 82%
    02:00 +10°C° 0 mm 1 m/S 716 mmHg 84%
    03:00 +8°C° 0 mm 2 m/S 716 mmHg 86%
    04:00 +9°C° 0 mm 1 m/S 717 mmHg 86%
    05:00 +9°C° 0 mm 1 m/S 717 mmHg 87%
    06:00 +9°C° 0 mm 1 m/S 717 mmHg 88%
    07:00 +10°C° 0,1 mm 1 m/S 718 mmHg 86%
    08:00 +10°C° 0,1 mm 1 m/S 718 mmHg 85%
    09:00 +11°C° 0,1 mm 1 m/S 718 mmHg 83%
    10:00 +12°C° 0,1 mm 2 m/S 719 mmHg 79%
    11:00 +12°C° 0,1 mm 2 m/S 719 mmHg 75%
    12:00 +14°C° 0 mm 2 m/S 720 mmHg 70%
    13:00 +14°C° 0 mm 2 m/S 720 mmHg 68%
    14:00 +15°C° 0 mm 2 m/S 720 mmHg 67%
    15:00 +15°C° 0 mm 2 m/S 720 mmHg 65%
    16:00 +14°C° 0 mm 2 m/S 720 mmHg 70%
    17:00 +13°C° 0 mm 1 m/S 720 mmHg 76%
    18:00 +12°C° 0 mm 1 m/S 721 mmHg 81%
    19:00 +11°C° 0 mm 1 m/S 721 mmHg 83%
    20:00 +11°C° 0 mm 1 m/S 722 mmHg 84%
    21:00 +10°C° 0 mm 1 m/S 722 mmHg 85%
    22:00 +10°C° 0 mm 1 m/S 722 mmHg 85%
    23:00 +10°C° 0 mm 1 m/S 722 mmHg 84%

    Morgen, 20 Januar, Samstag

    Zeit Temperatur Niederschläge Wind Luftdruck Luftfeuchtigkeit
    00:00 +10°C° 0 mm 1 m/S 723 mmHg 83%
    01:00 +10°C° 0 mm 1 m/S 723 mmHg 83%
    02:00 +9°C° 0 mm 1 m/S 722 mmHg 83%
    03:00 +9°C° 0 mm 1 m/S 722 mmHg 82%
    04:00 +9°C° 0 mm 1 m/S 722 mmHg 82%
    05:00 +9°C° 0 mm 1 m/S 722 mmHg 83%
    06:00 +7°C° 0 mm 0 m/S 722 mmHg 83%
    07:00 +9°C° 0 mm 0 m/S 723 mmHg 79%
    08:00 +10°C° 0 mm 0 m/S 723 mmHg 74%
    09:00 +11°C° 0 mm 0 m/S 724 mmHg 70%
    10:00 +14°C° 0 mm 1 m/S 724 mmHg 65%
    11:00 +15°C° 0 mm 1 m/S 725 mmHg 60%
    12:00 +18°C° 0 mm 1 m/S 725 mmHg 56%
    13:00 +18°C° 0 mm 1 m/S 725 mmHg 55%
    14:00 +17°C° 0 mm 2 m/S 724 mmHg 55%
    15:00 +18°C° 0 mm 2 m/S 724 mmHg 54%
    16:00 +16°C° 0 mm 2 m/S 724 mmHg 63%
    17:00 +14°C° 0 mm 1 m/S 724 mmHg 72%
    18:00 +12°C° 0 mm 1 m/S 724 mmHg 80%
    19:00 +11°C° 0 mm 1 m/S 724 mmHg 83%
    20:00 +10°C° 0 mm 0 m/S 725 mmHg 85%
    21:00 +9°C° 0 mm 0 m/S 725 mmHg 87%
    22:00 +9°C° 0 mm 0 m/S 725 mmHg 87%
    23:00 +9°C° 0 mm 0 m/S 725 mmHg 87%

    übermorgen, 21 Januar, Sonntag

    Zeit Temperatur Niederschläge Wind Luftdruck Luftfeuchtigkeit
    00:00 +8°C° 0 mm 0 m/S 725 mmHg 86%
    01:00 +8°C° 0 mm 0 m/S 725 mmHg 84%
    02:00 +8°C° 0 mm 0 m/S 725 mmHg 83%
    03:00 +8°C° 0 mm 0 m/S 725 mmHg 81%
    04:00 +8°C° 0 mm 0 m/S 725 mmHg 79%
    05:00 +8°C° 0 mm 0 m/S 725 mmHg 77%
    06:00 +8°C° 0 mm 1 m/S 725 mmHg 75%
    07:00 +10°C° 0 mm 1 m/S 725 mmHg 70%
    08:00 +11°C° 0 mm 1 m/S 726 mmHg 66%
    09:00 +12°C° 0 mm 1 m/S 726 mmHg 61%
    10:00 +14°C° 0 mm 1 m/S 726 mmHg 55%
    11:00 +15°C° 0 mm 1 m/S 726 mmHg 49%
    12:00 +18°C° 0 mm 1 m/S 726 mmHg 42%
    13:00 +18°C° 0 mm 1 m/S 726 mmHg 42%
    14:00 +19°C° 0 mm 1 m/S 725 mmHg 42%
    15:00 +18°C° 0 mm 2 m/S 725 mmHg 42%
    16:00 +16°C° 0 mm 1 m/S 724 mmHg 52%
    17:00 +14°C° 0 mm 1 m/S 724 mmHg 61%
    18:00 +12°C° 0 mm 1 m/S 724 mmHg 71%
    19:00 +12°C° 0 mm 1 m/S 725 mmHg 73%
    20:00 +10°C° 0 mm 0 m/S 725 mmHg 76%
    21:00 +9°C° 0 mm 0 m/S 725 mmHg 78%
    22:00 +9°C° 0 mm 0 m/S 725 mmHg 79%
    23:00 +9°C° 0 mm 0 m/S 725 mmHg 79%

    22 Januar, Montag

    Zeit Temperatur Niederschläge Wind Luftdruck Luftfeuchtigkeit
    00:00 +8°C° 0 mm 0 m/S 725 mmHg 80%
    01:00 +8°C° 0 mm 0 m/S 724 mmHg 79%
    02:00 +8°C° 0 mm 0 m/S 724 mmHg 78%
    03:00 +8°C° 0 mm 0 m/S 724 mmHg 77%
    04:00 +8°C° 0 mm 0 m/S 724 mmHg 76%
    05:00 +7°C° 0 mm 0 m/S 724 mmHg 74%
    06:00 +7°C° 0 mm 0 m/S 723 mmHg 73%
    07:00 +9°C° 0 mm 0 m/S 724 mmHg 69%
    08:00 +11°C° 0 mm 1 m/S 724 mmHg 65%
    09:00 +13°C° 0 mm 1 m/S 725 mmHg 61%
    10:00 +14°C° 0 mm 1 m/S 725 mmHg 55%
    11:00 +16°C° 0 mm 1 m/S 725 mmHg 49%
    12:00 +19°C° 0 mm 1 m/S 725 mmHg 43%
    13:00 +19°C° 0 mm 1 m/S 724 mmHg 44%
    14:00 +20°C° 0 mm 1 m/S 724 mmHg 45%
    15:00 +19°C° 0 mm 2 m/S 723 mmHg 45%
    16:00 +18°C° 0 mm 1 m/S 723 mmHg 55%
    17:00 +15°C° 0 mm 1 m/S 723 mmHg 65%
    18:00 +13°C° 0 mm 1 m/S 723 mmHg 75%
    19:00 +12°C° 0 mm 1 m/S 723 mmHg 77%
    20:00 +11°C° 0 mm 0 m/S 724 mmHg 80%
    21:00 +10°C° 0 mm 0 m/S 724 mmHg 82%
    22:00 +10°C° 0 mm 0 m/S 724 mmHg 81%
    23:00 +9°C° 0 mm 0 m/S 724 mmHg 80%

    23 Januar, Dienstag

    Zeit Temperatur Niederschläge Wind Luftdruck Luftfeuchtigkeit
    00:00 +9°C° 0 mm 0 m/S 724 mmHg 79%
    01:00 +9°C° 0 mm 0 m/S 723 mmHg 78%
    02:00 +9°C° 0 mm 0 m/S 723 mmHg 78%
    03:00 +9°C° 0 mm 0 m/S 723 mmHg 77%
    04:00 +8°C° 0 mm 0 m/S 723 mmHg 75%
    05:00 +8°C° 0 mm 0 m/S 723 mmHg 74%
    06:00 +8°C° 0 mm 0 m/S 722 mmHg 72%
    07:00 +10°C° 0 mm 0 m/S 723 mmHg 68%
    08:00 +11°C° 0 mm 0 m/S 724 mmHg 65%
    09:00 +13°C° 0 mm 0 m/S 724 mmHg 61%
    10:00 +15°C° 0 mm 1 m/S 724 mmHg 55%
    11:00 +18°C° 0 mm 1 m/S 724 mmHg 49%
    12:00 +20°C° 0 mm 1 m/S 724 mmHg 43%
    13:00 +20°C° 0 mm 1 m/S 724 mmHg 43%
    14:00 +20°C° 0 mm 1 m/S 723 mmHg 43%
    15:00 +20°C° 0 mm 2 m/S 723 mmHg 43%
    16:00 +19°C° 0 mm 1 m/S 723 mmHg 52%
    17:00 +16°C° 0 mm 1 m/S 723 mmHg 61%
    18:00 +14°C° 0 mm 1 m/S 723 mmHg 69%
    19:00 +13°C° 0 mm 1 m/S 723 mmHg 71%
    20:00 +11°C° 0 mm 0 m/S 723 mmHg 72%
    21:00 +11°C° 0 mm 0 m/S 723 mmHg 74%
    22:00 +10°C° 0 mm 0 m/S 723 mmHg 72%
    23:00 +10°C° 0 mm 0 m/S 723 mmHg 70%

    24 Januar, Mittwoch

    Zeit Temperatur Niederschläge Wind Luftdruck Luftfeuchtigkeit
    00:00 +11°C° 0 mm 1 m/S 723 mmHg 68%
    01:00 +11°C° 0 mm 1 m/S 722 mmHg 66%
    02:00 +11°C° 0 mm 1 m/S 722 mmHg 65%
    03:00 +10°C° 0 mm 1 m/S 722 mmHg 63%
    04:00 +10°C° 0 mm 1 m/S 722 mmHg 60%
    05:00 +10°C° 0 mm 1 m/S 721 mmHg 57%
    06:00 +10°C° 0 mm 1 m/S 721 mmHg 55%
    07:00 +11°C° 0 mm 1 m/S 722 mmHg 52%
    08:00 +13°C° 0 mm 1 m/S 722 mmHg 50%
    09:00 +14°C° 0 mm 1 m/S 723 mmHg 47%
    10:00 +16°C° 0 mm 1 m/S 723 mmHg 42%
    11:00 +19°C° 0 mm 1 m/S 723 mmHg 37%
    12:00 +20°C° 0 mm 1 m/S 723 mmHg 32%
    13:00 +21°C° 0 mm 1 m/S 723 mmHg 33%
    14:00 +21°C° 0 mm 1 m/S 723 mmHg 34%
    15:00 +21°C° 0 mm 1 m/S 722 mmHg 35%
    16:00 +19°C° 0 mm 1 m/S 722 mmHg 42%
    17:00 +16°C° 0 mm 1 m/S 722 mmHg 50%
    18:00 +13°C° 0 mm 0 m/S 722 mmHg 58%
    19:00 +13°C° 0 mm 0 m/S 722 mmHg 59%
    20:00 +12°C° 0 mm 0 m/S 723 mmHg 60%
    21:00 +12°C° 0 mm 0 m/S 723 mmHg 61%
    22:00 +11°C° 0 mm 0 m/S 723 mmHg 60%
    23:00 +11°C° 0 mm 0 m/S 723 mmHg 60%
    Mehr zeigen